Location: UBC Liquid-Mirror Observatory
(49.2876°N, 122.5728°W)
Time: 01:56:43
(UTC-07:00)

Amateur Radio Satellites - All Passes

Search period start: 20 October 2017 01:26
Search period end: 21 October 2017 01:26
Location: UBC Liquid-Mirror Observatory, 49.2876°N, 122.5728°W

Satellite Date Start Highest point End Downlink Frequencies (MHz)
Time Altitude Azimuth
QB50P2 20 Oct 01:33:25 01:37:40 66° 287° (WNW) 01:41:53 145.880/145.840
NANOSAT C BR1 20 Oct 01:37:06 01:41:23 74° 286° (WNW) 01:45:36 145.865
DUCHIFAT 1 20 Oct 01:48:09 01:52:23 65° 288° (WNW) 01:56:33 145.980
MOZHAYETS 4 20 Oct 01:51:13 01:53:27 13° 56° (NE) 01:55:40
Oscar 19 20 Oct 01:55:49 02:00:02 25° 93° (E) 02:04:12 437.125/150
BUGSAT 1 20 Oct 01:57:41 02:01:47 45° 99° (E) 02:05:49 437.445
ITUPSAT 1 20 Oct 02:14:48 02:18:20 21° 59° (ENE) 02:21:52 437.325
SPROUT 20 Oct 02:20:06 02:21:00 11° 274° (W) 02:21:55 437.525
Gurwin Techsat 1B 20 Oct 02:23:25 02:28:09 31° 95° (E) 02:32:50 435.225
50 SAT 20 Oct 02:24:02 02:26:45 24° 264° (W) 02:29:31 437.505
DX 1 20 Oct 02:29:21 02:33:21 36° 262° (W) 02:37:24 434.975-435.025
BEESAT 20 Oct 02:29:59 02:34:00 27° 62° (ENE) 02:38:01 436.000
EO-79 20 Oct 02:45:18 02:48:04 17° 300° (WNW) 02:50:51 145.935-145.965
POLYITAN 1 20 Oct 02:50:05 02:52:39 16° 301° (WNW) 02:55:12 437.675
RS-15 20 Oct 02:52:29 03:04:52 75° 314° (NW) 03:17:09 29.354- 29.394
UKube-1 20 Oct 02:54:28 02:58:18 31° 264° (W) 03:02:10 .
M-CUBED/EXP-1 PRIME 20 Oct 02:55:41 02:59:04 47° 106° (ESE) 03:02:41 437.505
NANOSAT C BR1 20 Oct 03:15:17 03:16:19 11° 305° (NW) 03:17:20 145.865
MOZHAYETS 4 20 Oct 03:25:13 03:29:52 83° 77° (ENE) 03:34:32
BUGSAT 1 20 Oct 03:33:35 03:36:52 22° 298° (WNW) 03:40:07 437.445
Oscar 19 20 Oct 03:34:39 03:39:39 52° 291° (WNW) 03:44:35 437.125/150
CUBESAT XI-V 20 Oct 03:36:12 03:40:09 29° 65° (ENE) 03:44:07 437.345
NO-84 20 Oct 03:45:28 03:49:06 27° 135° (SE) 03:52:41 435.350 FM
ITUPSAT 1 20 Oct 03:50:56 03:55:42 64° 257° (WSW) 04:00:31 437.325
AO-7 20 Oct 03:59:39 04:07:07 35° 96° (E) 04:14:33 .
Gurwin Techsat 1B 20 Oct 04:03:12 04:08:14 44° 294° (WNW) 04:13:15 435.225
ITAMSAT 1 20 Oct 04:06:40 04:11:05 27° 93° (E) 04:15:27 435.822/435.867
BEESAT 20 Oct 04:06:59 04:11:34 45° 261° (W) 04:16:11 436.000
M-CUBED/EXP-1 PRIME 20 Oct 04:30:57 04:33:17 17° 302° (WNW) 04:35:41 437.505
KKS-1 20 Oct 04:54:59 04:59:17 52° 70° (ENE) 05:03:38 437.445
DOVE 4 20 Oct 05:02:10 05:04:51 14° 87° (E) 05:07:34 437.250
MOZHAYETS 4 20 Oct 05:05:25 05:07:39 13° 273° (W) 05:09:53
RS-15 20 Oct 05:08:11 05:19:41 41° 345° (NNW) 05:30:53 29.354- 29.394
CUBESAT XI-V 20 Oct 05:13:05 05:17:25 39° 263° (W) 05:21:45 437.345
NO-84 20 Oct 05:21:58 05:26:16 77° 333° (NNW) 05:30:25 435.350 FM
STARS 20 Oct 05:28:39 05:32:53 48° 69° (ENE) 05:37:09 437.465
ITAMSAT 1 20 Oct 05:45:43 05:50:48 51° 292° (WNW) 05:55:50 435.822/435.867
AO-7 20 Oct 05:52:12 06:00:23 65° 297° (WNW) 06:08:33 .
STRAND 1 20 Oct 05:58:26 06:01:23 16° 54° (NE) 06:04:20 437.568
O/OREOS (USA 219) 20 Oct 06:08:48 06:13:12 42° 56° (NE) 06:17:34 437.305
CUTE-I 20 Oct 06:14:27 06:17:31 15° 87° (E) 06:20:35 437.470
XW-2F 20 Oct 06:16:35 06:18:17 13° 89° (E) 06:19:58 145.980 - 146.000
LilacSat-2 20 Oct 06:20:38 06:23:03 16° 91° (E) 06:25:28 437.200
XW-2D 20 Oct 06:27:58 06:30:39 18° 92° (E) 06:33:19 145.860 - 145.880
NUDT-PHONESAT 20 Oct 06:29:45 06:31:35 13° 89° (E) 06:33:25 437.300
KKS-1 20 Oct 06:32:52 06:36:08 20° 268° (W) 06:39:26 437.445
DOVE 4 20 Oct 06:38:10 06:43:06 88° 289° (WNW) 06:48:17 437.250
XW-2B 20 Oct 06:41:06 06:44:12 24° 94° (E) 06:47:18 145.730 - 145.750
NO-84 20 Oct 07:00:09 07:04:07 37° 353° (N) 07:07:52 435.350 FM
FO-29 20 Oct 07:02:35 07:04:38 12° 46° (NE) 07:06:44 435.910
XW-2C 20 Oct 07:03:59 07:07:37 44° 99° (E) 07:11:11 145.795 - 145.815
STARS 20 Oct 07:06:07 07:09:28 21° 268° (W) 07:12:51 437.465
RS-15 20 Oct 07:24:21 07:35:51 43° 18° (NNE) 07:46:50 29.354- 29.394
ITAMSAT 1 20 Oct 07:28:39 07:29:07 10° 312° (NW) 07:29:34 435.822/435.867
STRAND 1 20 Oct 07:34:39 07:39:47 83° 74° (ENE) 07:44:59 437.568
SO-50 20 Oct 07:44:10 07:48:33 55° 124° (ESE) 07:52:58 436.795
AO-7 20 Oct 07:46:04 07:51:42 21° 320° (NW) 07:57:21 .
KAITUO 1B 20 Oct 07:47:35 07:51:18 78° 284° (WNW) 07:54:58 145.475/437.950
CUTE 1.7 + AOD 2 20 Oct 07:48:19 07:52:06 32° 96° (E) 07:55:52 437.475
O/OREOS (USA 219) 20 Oct 07:48:33 07:52:27 27° 255° (WSW) 07:56:18 437.305
XW-2F 20 Oct 07:49:05 07:52:47 59° 287° (WNW) 07:56:26 145.980 - 146.000
PCSat 20 Oct 07:49:19 07:52:19 15° 104° (ESE) 07:55:21 145.827
UWE-3 20 Oct 07:50:22 07:52:37 13° 86° (E) 07:54:50 435.000/436.395/437.385
HO-68 20 Oct 07:52:23 07:59:10 42° 97° (E) 08:05:53 435.675
CUTE-I 20 Oct 07:52:53 07:58:18 88° 292° (WNW) 08:03:42 437.470
LilacSat-2 20 Oct 07:53:57 07:57:36 46° 289° (WNW) 08:01:12 437.200
SEEDS 20 Oct 07:56:00 07:59:27 24° 93° (E) 08:02:53 437.485
XW-2D 20 Oct 08:01:29 08:05:00 39° 290° (WNW) 08:08:31 145.860 - 145.880
NUDT-PHONESAT 20 Oct 08:02:12 08:05:47 54° 287° (WNW) 08:09:22 437.300
XW-2A 20 Oct 08:05:52 08:07:58 15° 92° (E) 08:10:03 145.665 - 145.685
XW-2B 20 Oct 08:15:06 08:18:25 30° 292° (WNW) 08:21:42 145.730 - 145.750
DOVE 4 20 Oct 08:17:19 08:20:09 16° 302° (WNW) 08:23:05 437.250
AAUSAT CUBESAT 2 20 Oct 08:20:36 08:23:45 21° 92° (E) 08:26:52 437.432
NO-84 20 Oct 08:38:13 08:42:08 43° 14° (NNE) 08:45:48 435.350 FM
XW-2C 20 Oct 08:38:54 08:41:30 18° 297° (WNW) 08:44:05 145.795 - 145.815
AO-73 20 Oct 08:41:40 08:44:58 21° 91° (E) 08:48:12 145.935
FO-29 20 Oct 08:43:16 08:48:26 59° 69° (ENE) 08:54:06 435.910
CUBEBUG 2 20 Oct 08:46:39 08:51:22 75° 103° (ESE) 08:55:54 437.445
ZACube-1 20 Oct 09:03:08 09:07:14 36° 96° (E) 09:11:13 437.345
PRISM 20 Oct 09:05:48 09:07:30 12° 57° (ENE) 09:09:13 437.425
STRAND 1 20 Oct 09:16:39 09:19:39 15° 272° (W) 09:22:39 437.568
CUTE 1.7 + AOD 2 20 Oct 09:24:14 09:27:53 29° 294° (WNW) 09:31:30 437.475
YUBILEINY 20 Oct 09:24:43 09:32:46 45° 87° (E) 09:40:53 435.215
UWE-3 20 Oct 09:25:06 09:29:41 78° 285° (WNW) 09:34:06 435.000/436.395/437.385
SO-50 20 Oct 09:25:18 09:29:16 30° 324° (NW) 09:33:17 436.795
PCSat 20 Oct 09:29:28 09:34:54 84° 124° (ESE) 09:40:22 145.827
SEEDS 20 Oct 09:31:23 09:35:14 36° 292° (WNW) 09:39:04 437.485
UNISAT 6 20 Oct 09:31:31 09:35:57 45° 69° (ENE) 09:40:28 437.425
CUTE-I 20 Oct 09:34:13 09:37:38 17° 306° (NW) 09:41:03 437.470
XW-2A 20 Oct 09:37:42 09:40:51 37° 290° (WNW) 09:43:58 145.665 - 145.685
RS-15 20 Oct 09:38:05 09:50:15 82° 49° (NE) 10:01:44 29.354- 29.394
Oscar 11 20 Oct 09:39:59 09:44:13 53° 100° (E) 09:48:25 .
HO-68 20 Oct 09:40:09 09:47:01 49° 298° (WNW) 09:53:52 435.675
TIGRISAT 20 Oct 09:46:11 09:50:45 57° 71° (ENE) 09:55:23 435.000
DELFI C3 20 Oct 09:49:53 09:52:24 16° 90° (E) 09:54:55 145.870
AAUSAT CUBESAT 2 20 Oct 09:55:29 09:59:23 43° 290° (WNW) 10:03:18 437.432
AIST 2D 20 Oct 10:11:22 10:12:42 12° 61° (ENE) 10:14:01 435.315
NO-84 20 Oct 10:15:48 10:19:43 63° 215° (SW) 10:23:18 435.350 FM
AO-73 20 Oct 10:17:14 10:21:29 47° 290° (WNW) 10:25:35 145.935
CUBEBUG 2 20 Oct 10:24:24 10:27:23 17° 302° (WNW) 10:30:19 437.445
FO-29 20 Oct 10:30:04 10:34:08 22° 271° (W) 10:38:29 435.910
EO-79 20 Oct 10:32:08 10:33:37 12° 55° (NE) 10:35:06 145.935-145.965
nSIGHT-1 20 Oct 10:33:43 10:36:05 19° 141° (SE) 10:38:29 .
EO-88 20 Oct 10:34:27 10:37:29 24° 94° (E) 10:40:28 145.990 - 145.960
POLYITAN 1 20 Oct 10:36:22 10:38:17 13° 56° (ENE) 10:40:11 437.675
PRISM 20 Oct 10:38:07 10:42:10 86° 256° (WSW) 10:46:16 437.425
ZACube-1 20 Oct 10:39:37 10:43:23 28° 295° (WNW) 10:47:03 437.345
Max Valier Satellite 20 Oct 10:43:51 10:47:22 41° 98° (E) 10:50:52 145.860
QB50P2 20 Oct 10:55:12 10:58:19 20° 61° (ENE) 11:01:27 145.880/145.840
NANOSAT C BR1 20 Oct 10:58:43 11:01:36 18° 60° (ENE) 11:04:30 145.865
UWE-3 20 Oct 11:03:32 11:05:19 12° 305° (NW) 11:07:06 435.000/436.395/437.385
ISS 20 Oct 11:05:51 11:08:45 30° 146° (SE) 11:11:39 437.550
SO-50 20 Oct 11:09:01 11:11:09 13° 348° (NNW) 11:13:19 436.795
UNISAT 6 20 Oct 11:09:01 11:12:51 25° 268° (W) 11:16:45 437.425
DUCHIFAT 1 20 Oct 11:09:12 11:12:18 20° 61° (ENE) 11:15:24 145.980
PCSat 20 Oct 11:14:28 11:18:58 25° 325° (NW) 11:23:28 145.827
Oscar 11 20 Oct 11:16:53 11:20:00 20° 298° (WNW) 11:23:07 .
YUBILEINY 20 Oct 11:21:10 11:29:31 50° 290° (WNW) 11:37:59 435.215
DELFI C3 20 Oct 11:23:36 11:27:27 52° 289° (WNW) 11:31:19 145.870
TIGRISAT 20 Oct 11:24:22 11:27:47 20° 270° (W) 11:31:15 435.000
LO-87 20 Oct 11:24:52 11:26:48 14° 90° (E) 11:28:43 145.935 - 145.965
HO-68 20 Oct 11:29:45 11:33:07 14° 320° (NW) 11:36:30 435.675
AIST 2D 20 Oct 11:41:54 11:45:23 66° 259° (W) 11:48:53 435.315
ESTCUBE 1 20 Oct 11:41:54 11:44:56 18° 90° (E) 11:47:56 437.505/2401.250
Oscar 19 20 Oct 11:42:04 11:43:12 11° 49° (NE) 11:44:20 437.125/150
RS-15 20 Oct 11:51:23 12:01:32 35° 255° (WSW) 12:11:16 29.354- 29.394
NO-84 20 Oct 11:55:08 11:56:18 11° 235° (SW) 11:57:27 435.350 FM
BEESAT 3 20 Oct 12:00:41 12:03:11 16° 113° (ESE) 12:05:42 437.485
EO-79 20 Oct 12:04:22 12:08:39 80° 74° (ENE) 12:12:57 145.935-145.965
EO-88 20 Oct 12:07:58 12:11:08 29° 292° (WNW) 12:14:16 145.990 - 145.960
nSIGHT-1 20 Oct 12:08:49 12:12:02 84° 156° (SSE) 12:15:15 .
POLYITAN 1 20 Oct 12:09:05 12:13:23 88° 79° (E) 12:17:44 437.675
Gurwin Techsat 1B 20 Oct 12:11:59 12:14:42 14° 52° (NE) 12:17:27 435.225
M-CUBED/EXP-1 PRIME 20 Oct 12:13:22 12:14:54 13° 55° (NE) 12:16:25 437.505
Max Valier Satellite 20 Oct 12:18:21 12:20:56 18° 297° (WNW) 12:23:29 145.860
SPROUT 20 Oct 12:23:23 12:25:03 12° 87° (E) 12:26:43 437.525
QB50P2 20 Oct 12:29:35 12:33:45 52° 260° (W) 12:37:59 145.880/145.840
NANOSAT C BR1 20 Oct 12:32:41 12:36:53 60° 259° (WSW) 12:41:09 145.865
ISS 20 Oct 12:41:47 12:45:02 75° 344° (NNW) 12:48:19 437.550
DUCHIFAT 1 20 Oct 12:43:28 12:47:37 52° 260° (W) 12:51:49 145.980
BUGSAT 1 20 Oct 12:50:48 12:54:53 55° 71° (ENE) 12:59:03 437.445
SO-50 20 Oct 12:51:13 12:53:32 14° 14° (NNE) 12:55:51 436.795
LO-87 20 Oct 12:56:58 13:00:32 52° 287° (WNW) 13:04:03 145.935 - 145.965
PCSat 20 Oct 13:02:05 13:04:21 12° 351° (N) 13:06:37 145.827
VELOX 1 20 Oct 13:07:17 13:10:49 23° 93° (E) 13:14:22 145.980
AO-85 20 Oct 13:08:15 13:10:37 16° 112° (ESE) 13:13:01 145.980
AO-7 20 Oct 13:13:51 13:19:41 22° 41° (NE) 13:25:32 .
Oscar 19 20 Oct 13:16:26 13:21:28 55° 69° (ENE) 13:26:30 437.125/150
ESTCUBE 1 20 Oct 13:17:41 13:22:07 60° 288° (WNW) 13:26:32 437.505/2401.250
BEESAT 2 20 Oct 13:20:15 13:23:47 30° 118° (ESE) 13:27:23 435.950
YUBILEINY 20 Oct 13:25:09 13:29:03 13° 317° (NW) 13:32:59 435.215
BEESAT 3 20 Oct 13:36:16 13:40:16 69° 312° (NW) 13:44:18 437.485
50 SAT 20 Oct 13:39:39 13:40:55 12° 90° (E) 13:42:11 437.505
EO-79 20 Oct 13:43:12 13:44:58 12° 273° (W) 13:46:44 145.935-145.965
nSIGHT-1 20 Oct 13:45:18 13:48:27 53° 359° (N) 13:51:37 .
M-CUBED/EXP-1 PRIME 20 Oct 13:45:41 13:49:00 56° 253° (WSW) 13:52:14 437.505
Gurwin Techsat 1B 20 Oct 13:48:29 13:53:46 73° 72° (ENE) 13:59:06 435.225
POLYITAN 1 20 Oct 13:48:34 13:49:48 11° 274° (W) 13:51:03 437.675
ITAMSAT 1 20 Oct 13:53:12 13:55:08 12° 50° (NE) 13:57:03 435.822/435.867
SPROUT 20 Oct 13:57:12 14:01:32 82° 286° (WNW) 14:05:50 437.525
DX 1 20 Oct 14:13:01 14:16:47 27° 95° (E) 14:20:31 434.975-435.025
ISS 20 Oct 14:18:30 14:21:44 55° 5° (N) 14:24:58 437.550
BUGSAT 1 20 Oct 14:27:45 14:30:35 17° 269° (W) 14:33:27 437.445
SO-50 20 Oct 14:31:12 14:35:21 32° 37° (NE) 14:39:33 436.795
UKube-1 20 Oct 14:36:41 14:40:32 30° 96° (E) 14:44:22 .
VELOX 1 20 Oct 14:43:14 14:47:28 44° 291° (WNW) 14:51:41 145.980
AO-85 20 Oct 14:46:36 14:50:28 66° 312° (NW) 14:54:32 145.980
PCSat 20 Oct 14:47:14 14:50:12 15° 18° (NNE) 14:53:10 145.827
Oscar 19 20 Oct 14:57:00 15:01:07 24° 268° (W) 15:05:15 437.125/150
BEESAT 2 20 Oct 14:57:38 15:01:26 39° 318° (NW) 15:05:17 435.950
AO-7 20 Oct 15:02:54 15:11:06 69° 64° (ENE) 15:19:20 .
50 SAT 20 Oct 15:10:18 15:13:32 50° 287° (WNW) 15:16:45 437.505
BEESAT 3 20 Oct 15:15:53 15:18:31 17° 332° (NNW) 15:21:11 437.485
MOZHAYETS 4 20 Oct 15:17:21 15:19:53 15° 88° (E) 15:22:25
nSIGHT-1 20 Oct 15:21:41 15:24:54 89° 19° (NNE) 15:28:07 .
ITAMSAT 1 20 Oct 15:28:28 15:33:35 61° 70° (ENE) 15:38:45 435.822/435.867
Gurwin Techsat 1B 20 Oct 15:30:37 15:34:17 19° 271° (W) 15:37:57 435.225
SPROUT 20 Oct 15:35:05 15:36:43 12° 304° (NW) 15:38:20 437.525
ITUPSAT 1 20 Oct 15:47:33 15:51:27 24° 93° (E) 15:55:19 437.325
DX 1 20 Oct 15:49:00 15:53:02 37° 293° (WNW) 15:57:03 434.975-435.025
ISS 20 Oct 15:55:02 15:58:18 67° 203° (SSW) 16:01:33 437.550
BEESAT 20 Oct 16:02:39 16:06:59 33° 96° (E) 16:11:17 436.000
SO-50 20 Oct 16:11:33 16:16:00 51° 238° (WSW) 16:20:31 436.795
DOVE 4 20 Oct 16:11:56 16:14:58 19° 60° (ENE) 16:18:06 437.250
UKube-1 20 Oct 16:12:41 16:16:33 33° 294° (WNW) 16:20:25 .
AO-85 20 Oct 16:29:06 16:31:40 16° 335° (NNW) 16:34:20 145.980
PCSat 20 Oct 16:30:10 16:35:12 37° 42° (NE) 16:40:13 145.827
BEESAT 2 20 Oct 16:38:24 16:40:15 13° 340° (NNW) 16:42:05 435.950
HO-68 20 Oct 16:42:43 16:45:56 14° 39° (NE) 16:49:09 435.675
MOZHAYETS 4 20 Oct 16:53:00 16:57:35 75° 287° (WNW) 17:02:08
AO-7 20 Oct 16:57:13 17:04:28 33° 265° (W) 17:11:46 .
nSIGHT-1 20 Oct 16:58:20 17:00:54 22° 217° (SW) 17:03:27 .
XW-2F 20 Oct 17:01:42 17:03:25 13° 60° (ENE) 17:05:08 145.980 - 146.000
CUBESAT XI-V 20 Oct 17:04:53 17:09:11 37° 97° (E) 17:13:27 437.345
LilacSat-2 20 Oct 17:06:41 17:09:06 16° 62° (ENE) 17:11:30 437.200
ITAMSAT 1 20 Oct 17:09:30 17:13:28 22° 269° (W) 17:17:28 435.822/435.867
NUDT-PHONESAT 20 Oct 17:13:13 17:14:54 13° 60° (ENE) 17:16:35 437.300
XW-2D 20 Oct 17:13:17 17:15:54 18° 63° (ENE) 17:18:30 145.860 - 145.880
ITUPSAT 1 20 Oct 17:24:53 17:29:31 48° 292° (WNW) 17:34:06 437.325
XW-2B 20 Oct 17:26:15 17:29:16 23° 65° (ENE) 17:32:17 145.730 - 145.750
ISS 20 Oct 17:32:23 17:34:18 15° 222° (SW) 17:36:13 437.550
CUTE-I 20 Oct 17:39:40 17:44:31 37° 64° (ENE) 17:49:25 437.470
BEESAT 20 Oct 17:40:25 17:44:46 35° 295° (WNW) 17:49:05 436.000
DOVE 4 20 Oct 17:48:08 17:52:15 54° 260° (W) 17:56:37 437.250
XW-2C 20 Oct 17:48:52 17:52:26 39° 70° (ENE) 17:55:59 145.795 - 145.815
PCSat 20 Oct 18:13:33 18:18:47 49° 243° (WSW) 18:23:58 145.827
CUBEBUG 2 20 Oct 18:13:53 18:16:43 16° 58° (ENE) 18:19:34 437.445
KKS-1 20 Oct 18:17:49 18:22:16 57° 101° (ESE) 18:26:42 437.445
HO-68 20 Oct 18:25:13 18:32:00 48° 62° (ENE) 18:38:50 435.675
KAITUO 1B 20 Oct 18:30:53 18:34:37 86° 77° (ENE) 18:38:22 145.475/437.950
MOZHAYETS 4 20 Oct 18:32:14 18:33:57 12° 306° (NW) 18:35:39
XW-2F 20 Oct 18:33:16 18:37:02 70° 258° (WSW) 18:40:49 145.980 - 146.000
BEESAT 3 20 Oct 18:35:15 18:37:03 13° 20° (NNE) 18:38:50 437.485
LilacSat-2 20 Oct 18:39:15 18:43:00 53° 260° (W) 18:46:45 437.200
XW-2A 20 Oct 18:41:45 18:43:08 12° 61° (ENE) 18:44:30 145.665 - 145.685
CUBESAT XI-V 20 Oct 18:42:29 18:46:27 29° 295° (WNW) 18:50:26 437.345
NUDT-PHONESAT 20 Oct 18:44:33 18:48:16 68° 258° (WSW) 18:51:59 437.300
CUTE 1.7 + AOD 2 20 Oct 18:44:37 18:48:31 38° 69° (ENE) 18:52:27 437.475
XW-2D 20 Oct 18:46:06 18:49:46 45° 261° (W) 18:53:26 145.860 - 145.880
STARS 20 Oct 18:49:40 18:54:01 51° 100° (E) 18:58:20 437.465
UWE-3 20 Oct 18:50:34 18:53:57 20° 61° (ENE) 18:57:21 435.000/436.395/437.385
SEEDS 20 Oct 18:51:24 18:55:01 29° 66° (ENE) 18:58:37 437.485
XW-2B 20 Oct 18:59:49 19:03:18 34° 263° (W) 19:06:47 145.730 - 145.750
Oscar 11 20 Oct 19:07:08 19:07:19 10° 54° (NE) 19:07:29 .
AAUSAT CUBESAT 2 20 Oct 19:14:31 19:17:49 24° 64° (ENE) 19:21:08 437.432
CUTE-I 20 Oct 19:19:39 19:24:34 37° 263° (W) 19:29:32 437.470
XW-2C 20 Oct 19:23:58 19:26:46 19° 268° (W) 19:29:34 145.795 - 145.815
YUBILEINY 20 Oct 19:29:00 19:36:26 29° 60° (ENE) 19:43:51 435.215
AO-73 20 Oct 19:40:29 19:44:23 28° 65° (ENE) 19:48:16 145.935
STRAND 1 20 Oct 19:41:36 19:45:28 21° 91° (E) 19:49:19 437.568
CUBEBUG 2 20 Oct 19:47:58 19:52:40 84° 255° (WSW) 19:57:29 437.445
AO-85 20 Oct 19:53:13 19:56:01 17° 25° (NNE) 19:58:57 145.980
KKS-1 20 Oct 19:55:10 19:58:27 20° 300° (WNW) 20:01:44 437.445
BEESAT 2 20 Oct 19:56:22 19:59:08 17° 28° (NNE) 20:01:54 435.950
ZACube-1 20 Oct 20:02:09 20:06:34 48° 70° (ENE) 20:10:59 437.345
BEESAT 3 20 Oct 20:11:50 20:15:38 40° 43° (NE) 20:19:22 437.485
XW-2A 20 Oct 20:12:00 20:15:23 61° 258° (WSW) 20:18:47 145.665 - 145.685
HO-68 20 Oct 20:13:05 20:19:49 43° 262° (W) 20:26:38 435.675
CUTE 1.7 + AOD 2 20 Oct 20:21:01 20:24:28 24° 267° (W) 20:27:57 437.475
UWE-3 20 Oct 20:25:22 20:29:58 62° 259° (W) 20:34:38 435.000/436.395/437.385
O/OREOS (USA 219) 20 Oct 20:26:16 20:29:40 21° 102° (ESE) 20:33:05 437.305
STARS 20 Oct 20:26:38 20:30:03 22° 299° (WNW) 20:33:26 437.465
SEEDS 20 Oct 20:26:54 20:30:38 31° 264° (W) 20:34:24 437.485
Oscar 11 20 Oct 20:38:19 20:42:37 68° 74° (ENE) 20:46:56 .
DELFI C3 20 Oct 20:39:14 20:41:49 17° 62° (ENE) 20:44:24 145.870
AAUSAT CUBESAT 2 20 Oct 20:49:15 20:53:06 38° 263° (W) 20:56:57 437.432
EO-88 20 Oct 21:16:06 21:18:53 21° 65° (ENE) 21:21:41 145.990 - 145.960
AO-73 20 Oct 21:16:11 21:20:28 39° 263° (W) 21:24:46 145.935
STRAND 1 20 Oct 21:19:57 21:25:05 62° 290° (WNW) 21:30:10 437.568
YUBILEINY 20 Oct 21:25:28 21:34:16 79° 264° (W) 21:43:05 435.215
Max Valier Satellite 20 Oct 21:26:16 21:29:42 35° 69° (ENE) 21:33:08 145.860
CUBEBUG 2 20 Oct 21:28:20 21:30:02 12° 275° (W) 21:31:45 437.445
FO-29 20 Oct 21:30:54 21:37:22 43° 97° (E) 21:44:26 435.910
AO-85 20 Oct 21:32:54 21:37:16 57° 46° (NE) 21:42:00 145.980
BEESAT 2 20 Oct 21:33:29 21:37:34 74° 50° (NE) 21:41:34 435.950
ZACube-1 20 Oct 21:39:28 21:43:04 22° 268° (W) 21:46:41 437.345
BEESAT 3 20 Oct 21:49:38 21:53:04 28° 242° (WSW) 21:56:26 437.485
O/OREOS (USA 219) 20 Oct 22:04:13 22:08:42 54° 301° (WNW) 22:13:15 437.305
LO-87 20 Oct 22:05:32 22:06:57 12° 60° (ENE) 22:08:22 145.935 - 145.965
DELFI C3 20 Oct 22:12:24 22:16:13 52° 260° (W) 22:20:03 145.870
Oscar 11 20 Oct 22:16:46 22:19:14 15° 272° (W) 22:21:41 .
ESTCUBE 1 20 Oct 22:45:03 22:48:49 27° 64° (ENE) 22:52:35 437.505/2401.250
EO-88 20 Oct 22:48:59 22:52:21 35° 263° (W) 22:55:44 145.990 - 145.960
UNISAT 6 20 Oct 22:55:21 22:59:56 55° 100° (E) 23:04:23 437.425
Max Valier Satellite 20 Oct 23:00:44 23:03:37 21° 267° (W) 23:06:31 145.860
STRAND 1 20 Oct 23:01:21 23:03:17 12° 309° (NW) 23:05:11 437.568
TIGRISAT 20 Oct 23:09:58 23:14:38 71° 102° (ESE) 23:19:09 435.000
BEESAT 2 20 Oct 23:12:27 23:14:46 15° 248° (WSW) 23:17:05 435.950
AO-85 20 Oct 23:13:44 23:17:27 25° 244° (WSW) 23:21:23 145.980
FO-29 20 Oct 23:16:04 23:22:27 48° 294° (WNW) 23:29:31 435.910
SPROUT 20 Oct 23:20:07 23:22:53 17° 60° (ENE) 23:25:40 437.525
YUBILEINY 20 Oct 23:23:58 23:29:37 19° 286° (WNW) 23:35:17 435.215
LO-87 20 Oct 23:36:15 23:39:50 71° 258° (WSW) 23:43:29 145.935 - 145.965
O/OREOS (USA 219) 20 Oct 23:47:31 23:49:12 12° 323° (NW) 23:50:54 437.305
PRISM 20 Oct 23:50:05 23:54:14 86° 104° (ESE) 23:58:22 437.425
POLYITAN 1 20 Oct 23:51:59 23:53:11 11° 86° (E) 23:54:22 437.675
RS-15 21 Oct 00:07:06 00:17:26 34° 105° (ESE) 00:27:45 29.354- 29.394
VELOX 1 21 Oct 00:08:09 00:12:06 34° 66° (ENE) 00:16:04 145.980
QB50P2 21 Oct 00:10:46 00:13:50 19° 91° (E) 00:16:54 145.880/145.840
NANOSAT C BR1 21 Oct 00:13:35 00:16:20 17° 90° (E) 00:19:05 145.865
ESTCUBE 1 21 Oct 00:21:14 00:25:28 39° 262° (W) 00:29:42 437.505/2401.250
DUCHIFAT 1 21 Oct 00:23:47 00:26:47 18° 91° (E) 00:29:45 145.980
UNISAT 6 21 Oct 00:32:46 00:36:16 21° 299° (WNW) 00:39:42 437.425
AIST 2D 21 Oct 00:35:34 00:39:03 83° 104° (ESE) 00:42:31 435.315
TIGRISAT 21 Oct 00:47:43 00:50:47 18° 301° (WNW) 00:53:48 435.000
SPROUT 21 Oct 00:54:03 00:58:18 65° 258° (WSW) 01:02:37 437.525
FO-29 21 Oct 01:03:38 01:06:09 12° 314° (NW) 01:08:47 435.910
DX 1 21 Oct 01:12:11 01:16:13 40° 67° (ENE) 01:20:18 434.975-435.025
